TimeEDT,TemperatureF,Dew PointF,Humidity,Sea Level PressureIn,VisibilityMPH,Wind Direction,Wind SpeedMPH,Gust SpeedMPH,PrecipitationIn,Events,Conditions,WindDirDegrees,DateUTC
12:54 AM,48.0,45.0,89,29.80,10.0,Calm,Calm,-,N/A,,Clear,0,2013-10-23 04:54:00
1:54 AM,46.9,45.0,93,29.78,10.0,Calm,Calm,-,N/A,,Clear,0,2013-10-23 05:54:00
2:54 AM,46.9,45.0,93,29.77,10.0,Calm,Calm,-,N/A,,Clear,0,2013-10-23 06:54:00
3:54 AM,48.9,46.0,90,29.76,10.0,NNW,8.1,-,N/A,,Clear,340,2013-10-23 07:54:00
4:54 AM,48.9,42.1,77,29.75,10.0,North,6.9,-,N/A,,Partly Cloudy,360,2013-10-23 08:54:00
5:54 AM,46.0,41.0,83,29.77,10.0,Calm,Calm,-,N/A,,Clear,0,2013-10-23 09:54:00
6:54 AM,44.1,41.0,89,29.77,10.0,Calm,Calm,-,N/A,,Clear,0,2013-10-23 10:54:00
7:54 AM,42.1,39.9,92,29.78,10.0,Calm,Calm,-,N/A,,Clear,0,2013-10-23 11:54:00
8:54 AM,46.0,42.1,86,29.79,10.0,South,3.5,-,N/A,,Clear,170,2013-10-23 12:54:00
9:54 AM,54.0,39.9,59,29.78,10.0,North,8.1,-,N/A,,Scattered Clouds,360,2013-10-23 13:54:00
10:54 AM,57.0,35.1,44,29.78,10.0,WNW,10.4,-,N/A,,Scattered Clouds,300,2013-10-23 14:54:00
11:54 AM,57.0,30.0,36,29.80,10.0,NW,13.8,20.7,N/A,,Clear,310,2013-10-23 15:54:00
12:12 PM,55.4,32.0,41,29.83,10.0,North,16.1,21.9,N/A,,Partly Cloudy,350,2013-10-23 16:12:00
12:54 PM,55.9,32.0,40,29.81,10.0,North,12.7,19.6,N/A,,Partly Cloudy,10,2013-10-23 16:54:00
1:54 PM,54.0,30.9,41,29.83,10.0,NNW,24.2,32.2,N/A,,Partly Cloudy,340,2013-10-23 17:54:00
2:54 PM,54.0,32.0,43,29.85,10.0,NNW,19.6,26.5,N/A,,Clear,340,2013-10-23 18:54:00
3:54 PM,52.0,30.0,43,29.87,10.0,NNW,19.6,29.9,N/A,,Clear,340,2013-10-23 19:54:00
4:54 PM,50.0,28.9,44,29.89,10.0,North,18.4,25.3,N/A,,Clear,350,2013-10-23 20:54:00
5:54 PM,46.9,28.9,50,29.94,10.0,North,17.3,25.3,N/A,,Partly Cloudy,350,2013-10-23 21:54:00
6:54 PM,43.0,28.0,56,29.97,10.0,North,12.7,19.6,N/A,,Clear,350,2013-10-23 22:54:00
7:54 PM,42.1,28.0,58,30.01,10.0,North,11.5,-,N/A,,Mostly Cloudy,10,2013-10-23 23:54:00
8:54 PM,39.9,27.0,60,30.02,10.0,North,10.4,19.6,N/A,,Scattered Clouds,360,2013-10-24 00:54:00
9:54 PM,39.0,28.0,65,30.02,10.0,NNW,10.4,-,N/A,,Clear,330,2013-10-24 01:54:00
10:54 PM,39.0,28.9,67,30.04,10.0,North,8.1,-,N/A,,Clear,350,2013-10-24 02:54:00
11:54 PM,39.0,28.0,65,30.04,10.0,North,9.2,-,N/A,,Clear,350,2013-10-24 03:54:00